User: anonymous   Login
Location: Cimarron National Grasslands
(37.1250°N, 101.7500°W)
Time: 14:40:57
(UTC-05:00)
Language:

Ariane Rocket - Orbit

View from above orbital plane
View from above orbital plane
View from above satellite
View from above satellite

Ground track
Ground track

The orbit data is extracted from the following two-line orbital elements,

1 23561U 95021B   18109.24898198  .00000018  00000-0  21446-4 0  9992
2 23561  98.7948 122.5627 0008104  76.7484 340.5796 14.37867136205230
Epoch (UTC): 19 April 2018 05:58:32
Eccentricity: 0.0008104
inclination: 98.7948°
perigee height: 760 km
apogee height: 771 km
right ascension of ascending node: 122.5627°
argument of perigee: 76.7484°
revolutions per day: 14.37867136
mean anomaly at epoch: 340.5796°
orbit number at epoch: 20523

The dashed part of the orbit path shows where the satellite is in the earth's shadow,  

DLR